When you browse on this site, cookies collect data to enhance your experience and personalize the content and advertising you see.
Visit our Privacy Policy to learn more. By continuing to use the site, you agree to this use of cookies and data.
  • en France
  • Liste des pays
  • À 7 jours
  • Température de l'eau
  • Carte satellitaire
  • Carte météo
  • Widgets météo
  • user-avatar
    Se connecter

    Météo par heure à Kuznecy

    Ce jour, 19 Janvier, Samedi

    Heure Température Précipitation Vent Pression Humidité
    00:00 -9°C° 0.1 mm 4 m/s 739 mmHg 92%
    01:00 -8°C° 0.1 mm 4 m/s 739 mmHg 91%
    02:00 -7°C° 0 mm 5 m/s 739 mmHg 91%
    03:00 -8°C° 0.2 mm 4 m/s 740 mmHg 90%
    04:00 -9°C° 0.2 mm 4 m/s 740 mmHg 89%
    05:00 -8°C° 0.2 mm 3 m/s 741 mmHg 89%
    06:00 -9°C° 0 mm 3 m/s 741 mmHg 90%
    07:00 -12°C° 0 mm 3 m/s 741 mmHg 92%
    08:00 -13°C° 0 mm 3 m/s 742 mmHg 93%
    09:00 -13°C° 0 mm 3 m/s 742 mmHg 92%
    10:00 -12°C° 0 mm 3 m/s 743 mmHg 90%
    11:00 -12°C° 0 mm 3 m/s 743 mmHg 88%
    12:00 -10°C° 0 mm 3 m/s 744 mmHg 89%
    13:00 -9°C° 0 mm 3 m/s 744 mmHg 89%
    14:00 -8°C° 0 mm 3 m/s 744 mmHg 90%
    15:00 -7°C° 0 mm 3 m/s 744 mmHg 91%
    16:00 -7°C° 0 mm 3 m/s 744 mmHg 91%
    17:00 -6°C° 0 mm 3 m/s 744 mmHg 92%
    18:00 -7°C° 0 mm 3 m/s 744 mmHg 92%
    19:00 -8°C° 0 mm 4 m/s 744 mmHg 92%
    20:00 -8°C° 0 mm 4 m/s 744 mmHg 92%
    21:00 -8°C° 0 mm 4 m/s 744 mmHg 92%
    22:00 -9°C° 0 mm 4 m/s 743 mmHg 92%
    23:00 -10°C° 0 mm 5 m/s 743 mmHg 92%

    Demain, 20 Janvier, Dimanche

    Heure Température Précipitation Vent Pression Humidité
    00:00 -8°C° 0.3 mm 5 m/s 742 mmHg 91%
    01:00 -6°C° 0.3 mm 6 m/s 742 mmHg 89%
    02:00 -5°C° 0.3 mm 6 m/s 741 mmHg 88%
    03:00 -5°C° 1 mm 6 m/s 741 mmHg 89%
    04:00 -4°C° 1 mm 5 m/s 740 mmHg 89%
    05:00 -4°C° 1 mm 5 m/s 740 mmHg 90%
    06:00 -5°C° 0.1 mm 5 m/s 740 mmHg 86%
    07:00 -6°C° 0.1 mm 5 m/s 740 mmHg 83%
    08:00 -7°C° 0.1 mm 5 m/s 740 mmHg 80%
    09:00 -7°C° 0 mm 5 m/s 740 mmHg 80%
    10:00 -7°C° 0 mm 5 m/s 741 mmHg 80%
    11:00 -7°C° 0 mm 5 m/s 741 mmHg 80%
    12:00 -7°C° 0 mm 5 m/s 741 mmHg 80%
    13:00 -7°C° 0 mm 5 m/s 742 mmHg 80%
    14:00 -7°C° 0 mm 5 m/s 742 mmHg 80%
    15:00 -8°C° 0 mm 4 m/s 742 mmHg 82%
    16:00 -9°C° 0 mm 4 m/s 743 mmHg 85%
    17:00 -10°C° 0 mm 4 m/s 743 mmHg 88%
    18:00 -9°C° 0 mm 3 m/s 743 mmHg 87%
    19:00 -9°C° 0 mm 3 m/s 744 mmHg 86%
    20:00 -10°C° 0 mm 3 m/s 744 mmHg 85%
    21:00 -10°C° 0 mm 3 m/s 745 mmHg 87%
    22:00 -12°C° 0 mm 3 m/s 745 mmHg 89%
    23:00 -12°C° 0 mm 2 m/s 745 mmHg 91%

    Après-demain, 21 Janvier, Lundi

    Heure Température Précipitation Vent Pression Humidité
    00:00 -14°C° 0 mm 3 m/s 745 mmHg 92%
    01:00 -14°C° 0 mm 3 m/s 745 mmHg 94%
    02:00 -15°C° 0 mm 3 m/s 746 mmHg 95%
    03:00 -15°C° 0 mm 3 m/s 746 mmHg 95%
    04:00 -14°C° 0 mm 3 m/s 746 mmHg 95%
    05:00 -14°C° 0 mm 3 m/s 746 mmHg 95%
    06:00 -14°C° 0 mm 3 m/s 746 mmHg 95%
    07:00 -13°C° 0 mm 2 m/s 746 mmHg 96%
    08:00 -13°C° 0 mm 2 m/s 747 mmHg 96%
    09:00 -13°C° 0 mm 2 m/s 747 mmHg 96%
    10:00 -13°C° 0 mm 2 m/s 747 mmHg 95%
    11:00 -12°C° 0 mm 2 m/s 747 mmHg 94%
    12:00 -12°C° 0 mm 2 m/s 747 mmHg 94%
    13:00 -9°C° 0 mm 1 m/s 747 mmHg 94%
    14:00 -8°C° 0 mm 1 m/s 747 mmHg 94%
    15:00 -9°C° 0 mm 1 m/s 747 mmHg 95%
    16:00 -9°C° 0 mm 1 m/s 747 mmHg 96%
    17:00 -10°C° 0 mm 0 m/s 748 mmHg 98%
    18:00 -10°C° 0 mm 0 m/s 748 mmHg 98%
    19:00 -10°C° 0 mm 0 m/s 748 mmHg 97%
    20:00 -11°C° 0 mm 0 m/s 748 mmHg 97%
    21:00 -11°C° 0 mm 0 m/s 748 mmHg 97%
    22:00 -11°C° 0 mm 1 m/s 747 mmHg 97%
    23:00 -10°C° 0 mm 1 m/s 747 mmHg 97%

    22 Janvier, Mardi

    Heure Température Précipitation Vent Pression Humidité
    00:00 -10°C° 0.1 mm 1 m/s 747 mmHg 97%
    01:00 -13°C° 0.1 mm 2 m/s 747 mmHg 97%
    02:00 -13°C° 0.1 mm 2 m/s 747 mmHg 97%
    03:00 -13°C° 0.2 mm 2 m/s 746 mmHg 96%
    04:00 -13°C° 0.2 mm 2 m/s 745 mmHg 96%
    05:00 -14°C° 0.2 mm 3 m/s 745 mmHg 96%
    06:00 -14°C° 0.3 mm 3 m/s 745 mmHg 96%
    07:00 -14°C° 0.3 mm 3 m/s 744 mmHg 95%
    08:00 -14°C° 0.3 mm 3 m/s 744 mmHg 95%
    09:00 -14°C° 0.1 mm 3 m/s 744 mmHg 95%
    10:00 -14°C° 0.1 mm 3 m/s 744 mmHg 94%
    11:00 -14°C° 0.1 mm 3 m/s 744 mmHg 94%
    12:00 -14°C° 0.1 mm 3 m/s 744 mmHg 94%
    13:00 -14°C° 0.1 mm 3 m/s 744 mmHg 94%
    14:00 -15°C° 0.1 mm 3 m/s 744 mmHg 94%
    15:00 -16°C° 0 mm 3 m/s 744 mmHg 94%
    16:00 -17°C° 0 mm 3 m/s 744 mmHg 95%
    17:00 -17°C° 0 mm 2 m/s 744 mmHg 96%
    18:00 -18°C° 0 mm 2 m/s 744 mmHg 96%
    19:00 -20°C° 0 mm 2 m/s 744 mmHg 96%
    20:00 -21°C° 0 mm 2 m/s 745 mmHg 97%
    21:00 -21°C° 0 mm 2 m/s 745 mmHg 97%
    22:00 -23°C° 0 mm 2 m/s 745 mmHg 97%
    23:00 -20°C° 0 mm 1 m/s 746 mmHg 97%

    23 Janvier, Mercredi

    Heure Température Précipitation Vent Pression Humidité
    00:00 -20°C° 0 mm 1 m/s 746 mmHg 97%
    01:00 -20°C° 0 mm 1 m/s 746 mmHg 97%
    02:00 -20°C° 0 mm 1 m/s 747 mmHg 97%
    03:00 -20°C° 0 mm 1 m/s 747 mmHg 97%
    04:00 -20°C° 0 mm 1 m/s 747 mmHg 97%
    05:00 -21°C° 0 mm 1 m/s 747 mmHg 98%
    06:00 -21°C° 0 mm 1 m/s 747 mmHg 98%
    07:00 -21°C° 0 mm 1 m/s 747 mmHg 97%
    08:00 -21°C° 0 mm 1 m/s 747 mmHg 97%
    09:00 -19°C° 0 mm 1 m/s 748 mmHg 95%
    10:00 -18°C° 0 mm 1 m/s 748 mmHg 93%
    11:00 -17°C° 0 mm 1 m/s 748 mmHg 91%
    12:00 -18°C° 0 mm 2 m/s 748 mmHg 90%
    13:00 -17°C° 0 mm 2 m/s 748 mmHg 89%
    14:00 -16°C° 0 mm 2 m/s 747 mmHg 88%
    15:00 -16°C° 0 mm 2 m/s 747 mmHg 88%
    16:00 -17°C° 0 mm 2 m/s 747 mmHg 88%
    17:00 -18°C° 0 mm 3 m/s 747 mmHg 88%
    18:00 -17°C° 0.1 mm 3 m/s 747 mmHg 89%
    19:00 -17°C° 0.1 mm 3 m/s 747 mmHg 89%
    20:00 -16°C° 0.1 mm 3 m/s 747 mmHg 89%
    21:00 -16°C° 0.1 mm 3 m/s 747 mmHg 88%
    22:00 -16°C° 0.1 mm 3 m/s 747 mmHg 88%
    23:00 -16°C° 0.1 mm 3 m/s 747 mmHg 87%

    24 Janvier, Jeudi

    Heure Température Précipitation Vent Pression Humidité
    00:00 -16°C° 0 mm 3 m/s 747 mmHg 88%
    01:00 -17°C° 0 mm 3 m/s 747 mmHg 88%
    02:00 -17°C° 0 mm 3 m/s 747 mmHg 89%
    03:00 -17°C° 0.2 mm 3 m/s 747 mmHg 91%
    04:00 -16°C° 0.2 mm 2 m/s 747 mmHg 93%
    05:00 -17°C° 0.2 mm 2 m/s 746 mmHg 95%
    06:00 -16°C° 0.2 mm 2 m/s 747 mmHg 96%
    07:00 -16°C° 0.2 mm 2 m/s 747 mmHg 96%
    08:00 -13°C° 0.2 mm 1 m/s 747 mmHg 97%
    09:00 -15°C° 0 mm 2 m/s 747 mmHg 96%
    10:00 -15°C° 0 mm 2 m/s 747 mmHg 95%
    11:00 -14°C° 0 mm 2 m/s 747 mmHg 94%
    12:00 -14°C° 0.1 mm 2 m/s 747 mmHg 93%
    13:00 -14°C° 0.1 mm 2 m/s 747 mmHg 92%
    14:00 -15°C° 0.1 mm 3 m/s 747 mmHg 91%
    15:00 -16°C° 0.1 mm 3 m/s 747 mmHg 92%
    16:00 -16°C° 0.1 mm 3 m/s 748 mmHg 93%
    17:00 -17°C° 0.1 mm 3 m/s 748 mmHg 93%
    18:00 -17°C° 0 mm 3 m/s 748 mmHg 94%
    19:00 -16°C° 0 mm 2 m/s 749 mmHg 95%
    20:00 -17°C° 0 mm 2 m/s 749 mmHg 96%
    21:00 -16°C° 0.1 mm 2 m/s 749 mmHg 95%
    22:00 -16°C° 0.1 mm 3 m/s 750 mmHg 95%
    23:00 -16°C° 0.1 mm 3 m/s 750 mmHg 94%
    Voir plus